sat.trackr.live / text

‹ back to catalog

STARLINK-30385

NORAD 57778 · 2023-134H

PAYLOAD ACTIVE UNKNOWN

§ Identity

Operator
Country
US
Launch date
2023-09-04
Launch site
AFETR
Launch vehicle
Mass (kg)
RCS (m²)

Purposes: comms

External: N2YO · Heavens-Above · Gunter

§ Orbital elements

Epoch: 2026-05-25T05:03:14.673600Z

Period
94.27 min
Inclination
43.0042°
Eccentricity
0.0001193
Mean motion
15.27572185 rev/d
Perigee alt
482.3 km
Apogee alt
483.9 km
Semi-major
6,861.2 km
B*
1.1434e-5
RAAN
110.8480°
Arg perigee
270.2009°
Mean anomaly
89.8706°
Rev number
15,118

§ Raw data

STARLINK-303851 57778U 23134H   26145.21058650  .00000053  00000+0  11434-4 0  99962 57778  43.0042 110.8480 0001193 270.2009  89.8706 15.27572185151182

JSON: /api/v1/satellites/57778 · /tle

For live sub-satellite position, see the globe view (requires WebGL).

§ Visibility from observer

Set your observer location to see the next 7 days of passes ≥ 10°. The values pass through the URL so the page stays shareable.

No JS? Fill the form by hand. The geolocation button needs JavaScript.